RJFURJFF

Guest
Details From RJFU - NAGASAKI
To RJFF - FUKUOKA
Flight Number -
Tags generated
Created
Modified
Stats Distance 48 nm / 89 km
Max Altitude 6,400 ft / 1,951 m
Waypoints 3
Social Downloads 1
Likes 0
Share VATSIM

Download

Looking for another format? Having issues loading an existing format? Contact us
Advertisement - Login to hide

Notes

Basic altitude profile: - Ascent Rate: 2500ft/min - Ascent Speed: 250kts - Cruise Altitude: 35000ft - Cruise Speed: 420kts - Descent Rate: 1500ft/min - Descent Speed: 250kts Options: - Use NATs: yes - Use PACOTS: yes - Use low airways: yes - Use high airways: yes

Route

RJFU TAKEO RJFF

ID Type Via Altitude Latitude Longitude Leg Dist Tot Dist Heading (true) Name
O RJFU APT - 0 ft / 0 m 32.92250˚ 129.92346˚ - 0 nm - NAGASAKI
TAKEO FIX - 6,400 ft / 1,951 m 33.18916˚ 130.09159˚ 18 nm 18 nm 28° / 28° -
O RJFF APT - 0 ft / 0 m 33.58594˚ 130.45069˚ 29 nm 47 nm 37° / 37° FUKUOKA

Altitude Profile

Advertisement - Login to hide

RJFU

Details ICAO RJFU (NGS)
Name NAGASAKI
Region Japan
Timezone Asia/Tokyo (UTC+9.0)
Stats Elevation 15 ft / 5 m (AMSL)
Location 32.922505° 129.923457°
Runways 2
Magnetic Variation 7.271° W

METAR

Not found

TAF

TAF RJFU 241107Z 2412/2518 33005KT CAVOK BECMG 2414/2416 14003KT BECMG 2500/2503 24006KT BECMG 2509/2512 14003KT

Decode

Departure Runways

ID Width Length Bearing (true) Bearing (mag) Surface Threshold Offset Overrun Length
14 200 ft / 61 m 9,851 ft / 3,003 m 138.12° 145.39° Asphalt 0 ft / 0 m 200 ft / 61 m
18 100 ft / 30 m 4,363 ft / 1,330 m 174.19° 181.46° Asphalt 245 ft / 75 m 0 ft / 0 m
32 200 ft / 61 m 9,851 ft / 3,003 m 318.14° 325.41° Asphalt 0 ft / 0 m 200 ft / 61 m
36 100 ft / 30 m 4,363 ft / 1,330 m 354.19° 1.46° Asphalt 245 ft / 75 m 0 ft / 0 m

RJFF

Details ICAO RJFF (FUK)
Name FUKUOKA
Region Japan
Timezone Asia/Tokyo (UTC+9.0)
Stats Elevation 32 ft / 10 m (AMSL)
Location 33.585943° 130.450686°
Runways 1
Magnetic Variation 7.481° W

METAR

RJFF 241530Z AUTO 14003KT 9999 NSC 19/11 Q1009

Decode

TAF

TAF RJFF 241105Z 2412/2518 03005KT 9999 FEW040 BECMG 2412/2414 15004KT BECMG 2503/2506 33008KT BECMG 2515/2518 15003KT

Decode

Destination Runways

ID Width Length Bearing (true) Bearing (mag) Surface Threshold Offset Overrun Length
16 197 ft / 60 m 9,217 ft / 2,810 m 150.35° 157.83° Asphalt 0 ft / 0 m 719 ft / 219 m
34 197 ft / 60 m 9,217 ft / 2,810 m 330.35° 337.83° Asphalt 0 ft / 0 m 801 ft / 244 m

Approach Navaids

Runway Type Ident Frequency Range Bearing (true) Bearing (mag) Slope Elevation
16 Localiser IFO 111.70 MHz 18 nm / 33 km 150.48° 157.97° - 18 ft / 5 m (AMSL)
16 Glidescope IFO 111.70 MHz 10 nm / 19 km 150.35° 157.83° 3.00° 58 ft / 18 m (AMSL)
34 Localiser IFF 108.90 MHz 18 nm / 33 km 330.34° 337.83° - 18 ft / 5 m (AMSL)
34 Glidescope IFF 108.90 MHz 10 nm / 19 km 330.35° 337.83° 3.00° 46 ft / 14 m (AMSL)
34 DME IFF 108.90 MHz 18 nm / 33 km - - - 46 ft / 14 m (AMSL)